Погода в Богдашкине

Россия / Ульяновская область     54°36′49″N   47°40′32″E
темп.,
°C
ветер,
м/с
пор.,
м/с
влажн.,
%
обл.,
%
осадки,
мм/ч
давл.,
гПа
погр.,
м
10 апреля, сб
сб1001:000ссв2498100 0.0 1028114
04:000ссв3898100 0.0 1028226
07:000ссв41098100 0.1 1029340
10:000св512100100 1.6 1028395
13:00+1ссв510100100 1.3 1027317
16:00+1ссв49100100 3.6 1026280
19:00+1св37100100 1.9 1026226
22:00+1с35100100 1.9 1025137
11 апреля, вс
вс1101:00+1с46100100 4.8 1024130
04:00+1с37100100 5.9 1025161
07:00+1с37100100 0.0 1027174
10:00+2с48100100 0.3 1028203
13:00+3с48100100 0.0 1030247
16:00+3ссв48100100 0.4 1031232
19:00+3св36100100 0.3 1032161
22:00+3св48100100 0.5 1033160
12 апреля, пн
пн1201:00+3св3799100 0.0 1033131
04:00+3св3799100 0.1 1034148
07:00+3ссв3799100 0.2 1034167
10:00+7в599397 0.2 1034245
13:00+11всв458097 0.0 1034407
16:00+14всв45708 0.0 1033595
19:00+12всв358437 0.0 1033148
22:00+9в338961 0.0 103333
13 апреля, вт
вт1301:00+8юв2285100 0.0 103316
04:00+8юв228364 0.0 103311
07:00+7юв228447 0.0 103220
10:00+12ююв466267 0.0 1032330
13:00+16ююв564066 0.0 1031885
16:00+17ю563769 0.0 10301134
19:00+14ююв35545 0.0 102975
22:00+10ю346469 0.0 103048
14 апреля, ср
ср1401:00+9ю336769 0.0 102927
04:00+8ю237288 0.0 102916
07:00+7ю227599 0.0 102915
10:00+12ююв3460100 0.0 1028223
13:00+16ююв454459 0.0 1027794
16:00+18ююв45355 0.0 10251133
19:00+15ююв34495 0.0 102465
22:00+11ююв336029 0.0 102533